Wind_Speed
66 67 67 67 68 68 69 69 69 69 70 70 70 70 70 70 70 71 71 71 70 70 70 69 68 68 67 67 67 67 67 67 67 67 67 67 68 68 68 68 68 69 69 69 70 71 72 72 72 72 72 72 72 72 72 71 71 69 68 69 70 74 79 84 86 85 84 84 83 84 84 83 82 79 76 73 74 76 77 78 79 79 78 77 76 73 72 71
67 67 68 68 68 68 68 69 69 69 70 70 70 70 71 71 71 71 71 71 71 71 70 69 68 67 67 66 66 66 66 66 66 66 65 66 66 66 67 67 67 68 68 68 69 69 70 70 70 70 70 71 71 71 70 70 68 66 66 66 68 74 79 83 83 81 81 80 80 81 81 81 80 78 75 73 74 75 76 77 78 78 78 78 76 73 72 71
67 67 68 68 68 68 69 69 70 70 71 71 71 71 72 71 72 72 72 72 71 70 69 67 67 66 66 65 65 65 65 65 65 65 65 65 65 66 66 66 67 67 67 68 68 69 69 69 69 69 69 70 70 70 69 68 67 65 64 64 69 76 79 81 80 79 77 77 77 77 78 78 76 75 71 70 72 73 75 76 77 76 77 76 75 73 72 72
67 67 68 68 68 69 70 71 71 72 72 72 72 72 73 73 73 72 72 71 70 68 67 65 64 64 64 64 65 64 64 64 65 65 64 65 65 66 66 67 67 68 68 68 69 69 68 68 69 69 69 70 70 69 69 68 67 65 64 65 72 77 78 80 78 76 75 74 74 74 75 74 74 72 69 69 70 71 74 75 75 74 73 73 72 71 71 71
67 67 68 68 69 70 71 72 73 73 74 74 74 74 74 73 72 70 68 67 66 66 65 64 64 63 63 64 64 64 64 64 65 65 65 65 66 66 67 68 68 69 69 69 69 69 69 69 69 69 70 70 70 69 70 69 67 66 64 67 73 76 79 79 77 75 73 72 71 72 72 72 72 70 68 68 69 71 73 73 72 71 71 71 70 69 69 69
68 69 69 70 71 72 72 73 74 75 75 75 75 73 71 69 67 65 65 65 65 65 65 65 65 65 65 64 64 64 64 64 65 65 66 66 66 67 68 69 69 70 70 70 71 71 71 70 70 71 71 71 71 71 71 70 68 66 66 70 74 77 80 79 75 74 73 71 71 71 71 70 70 70 68 68 69 72 73 71 70 70 69 68 68 68 66 66
69 70 71 71 72 73 73 73 74 74 74 73 73 71 67 65 63 63 64 65 66 66 67 68 69 68 67 66 66 65 64 64 65 66 66 66 66 67 68 69 69 70 71 71 71 72 72 72 73 73 73 73 73 73 73 71 69 68 69 72 76 79 80 79 75 75 73 71 71 70 70 70 70 70 68 68 70 71 70 68 69 68 67 66 67 66 65 65
70 71 72 72 72 72 73 73 72 72 72 72 72 70 68 66 66 67 67 67 68 69 71 72 71 70 69 68 67 66 66 66 66 67 67 67 67 67 68 68 69 69 70 71 71 72 72 73 74 74 74 75 74 74 74 73 70 70 72 74 77 80 81 79 76 75 73 72 71 71 71 71 71 71 69 69 70 69 66 67 68 68 67 66 66 66 65 64
70 70 71 71 71 71 71 71 71 71 71 71 72 71 69 68 69 69 70 70 71 72 72 72 71 70 70 69 69 69 68 67 68 68 69 68 68 67 67 68 68 68 68 69 69 70 71 72 72 72 73 74 74 74 75 73 71 72 74 76 78 80 82 80 77 75 74 73 72 71 71 71 73 72 69 69 69 67 66 67 67 67 67 66 65 65 65 63
68 67 67 68 68 68 68 68 68 68 69 70 71 72 70 69 69 70 71 71 72 72 72 70 69 69 70 69 69 69 68 67 68 68 68 68 67 66 66 66 66 66 66 66 66 67 67 68 69 69 70 71 71 73 73 72 72 74 75 76 77 79 81 79 77 75 74 73 71 71 70 71 73 72 69 69 69 66 65 66 67 67 67 66 65 65 64 63
64 63 63 63 63 63 63 64 65 65 67 68 70 72 72 71 70 70 70 70 71 72 72 70 69 68 69 69 68 67 66 66 66 66 66 66 65 65 65 65 64 63 63 63 63 64 64 65 65 65 66 68 69 70 70 70 71 72 72 73 75 77 79 78 76 75 74 72 70 69 69 70 72 71 68 68 67 65 64 65 67 67 66 66 66 65 65 62
60 60 59 60 60 61 61 61 62 63 64 66 68 70 72 73 73 72 72 72 73 73 73 72 70 69 68 68 66 65 65 65 65 64 65 65 64 64 63 63 63 62 61 61 61 61 61 62 62 62 64 65 66 67 67 68 69 69 69 70 72 74 75 75 75 74 73 71 70 69 68 71 73 71 69 68 65 65 64 65 66 65 65 65 66 65 64 61
58 58 58 59 60 61 62 63 63 63 64 65 66 68 70 71 73 73 73 74 74 74 73 71 70 68 68 67 65 64 64 64 64 64 64 64 64 63 63 63 61 61 60 59 59 59 59 59 59 60 62 62 64 65 65 66 66 66 67 68 71 72 71 72 72 72 71 69 70 68 67 72 74 71 70 67 64 64 63 63 64 64 63 64 65 64 62 59
56 57 58 59 60 61 62 64 65 66 66 67 68 68 69 70 71 71 71 72 72 71 70 69 68 67 67 66 64 63 64 63 63 63 63 64 64 62 63 62 61 60 60 59 58 58 58 58 57 58 59 60 61 62 63 63 63 64 65 65 68 69 69 71 71 70 70 69 69 67 67 71 72 70 70 66 62 61 61 61 63 63 63 64 64 62 59 56
53 54 55 56 58 59 61 63 65 66 68 69 70 71 71 71 71 71 71 70 70 70 69 68 68 67 67 66 64 64 63 63 63 63 64 65 64 62 62 62 61 60 59 58 57 57 56 56 55 56 57 57 58 59 59 60 59 61 61 62 64 65 66 69 69 69 69 69 69 67 66 68 68 68 69 64 60 59 60 60 61 62 64 65 64 59 55 53
53 53 54 55 55 57 58 60 62 63 65 67 69 70 71 71 71 71 71 71 70 70 69 68 68 67 67 67 65 64 64 63 63 63 64 64 63 62 60 60 60 59 58 57 55 54 54 53 53 53 54 54 54 55 56 55 55 56 57 59 61 62 64 66 67 67 68 68 66 64 64 63 64 66 67 63 58 57 58 58 59 62 65 64 60 55 52 52
54 55 56 56 57 58 59 60 61 62 63 64 65 66 67 67 67 67 68 69 70 70 69 69 69 68 67 67 65 63 63 63 62 62 62 62 60 59 58 58 58 57 56 54 53 52 51 51 50 50 50 50 51 52 51 51 52 55 55 57 60 61 63 64 65 65 66 65 62 61 61 60 62 65 64 61 57 55 57 57 58 61 63 62 57 53 51 52
54 55 56 58 59 61 62 63 64 64 65 66 66 66 67 66 65 65 64 65 67 69 70 69 69 68 67 67 64 63 63 63 62 61 60 59 57 57 56 56 55 54 53 52 51 49 48 48 47 47 47 48 49 49 48 50 54 55 55 57 58 58 58 58 60 61 61 60 58 58 59 58 60 64 62 58 55 54 55 56 57 59 60 59 55 51 50 52
55 56 57 58 60 61 63 64 65 66 67 68 69 69 69 68 67 65 64 64 65 67 67 67 68 68 67 66 64 63 63 62 61 60 59 57 55 54 54 53 53 51 50 50 48 46 45 45 44 45 46 47 47 46 47 51 53 52 52 53 52 51 51 53 56 58 57 56 55 56 56 57 59 61 59 56 54 53 54 54 56 57 56 55 52 49 49 51
57 57 58 59 60 61 62 63 64 65 67 68 69 69 69 67 66 65 63 63 63 63 63 64 65 66 66 64 63 63 62 61 60 59 57 55 53 52 51 51 50 49 49 48 46 44 43 43 43 45 46 46 45 45 47 50 50 49 49 48 48 48 49 53 56 58 56 53 53 53 54 55 57 58 56 54 53 52 52 52 54 55 53 51 50 48 48 49
60 60 59 60 60 61 61 61 61 62 63 65 66 66 66 64 63 62 60 60 61 60 59 60 61 63 63 61 61 61 60 59 59 58 55 52 51 50 49 49 48 48 47 46 44 42 42 43 44 45 44 43 43 44 45 47 47 46 46 45 46 48 51 56 58 58 56 51 52 53 52 53 55 55 55 53 52 52 51 52 53 54 51 48 48 47 47 47
61 61 60 59 59 59 59 58 58 58 60 61 61 61 61 61 60 58 55 56 58 57 56 58 58 61 61 58 59 58 57 58 57 56 53 50 49 48 47 47 47 48 46 44 43 42 41 42 43 42 41 41 41 42 44 45 45 44 43 44 46 50 54 57 56 56 54 49 51 52 51 52 54 54 54 53 53 53 52 52 51 50 47 45 47 47 46 45
61 61 59 58 58 57 56 55 55 56 57 58 57 56 56 56 56 54 51 53 57 55 54 55 56 59 60 58 56 56 56 57 56 53 51 50 49 46 45 47 47 45 43 42 42 41 41 41 40 39 39 39 40 41 42 43 43 42 42 44 49 53 54 54 54 54 51 47 49 51 50 51 52 53 54 54 54 53 51 49 47 46 44 45 46 46 45 45
61 60 59 58 57 57 56 55 54 54 55 55 54 52 52 52 51 51 50 50 54 55 52 52 55 58 59 56 53 54 56 56 54 52 50 50 49 45 44 46 45 42 42 41 40 40 39 38 38 38 38 39 39 40 41 42 42 42 43 47 51 52 51 52 52 51 48 45 48 50 48 48 50 52 55 55 55 52 48 46 44 44 44 44 45 45 45 44
60 59 58 58 57 58 57 55 54 53 54 52 50 49 49 49 47 47 48 47 50 55 52 50 54 57 56 53 52 53 53 53 52 50 48 49 47 44 43 44 42 41 41 39 38 39 37 37 38 37 37 38 38 39 40 41 41 41 44 48 50 49 49 50 49 48 46 45 47 48 46 46 48 53 56 56 53 49 45 44 43 43 44 45 45 45 45 45
60 59 58 58 58 58 56 55 53 52 51 49 48 47 47 46 45 45 46 45 47 53 52 48 51 54 53 52 51 51 50 51 50 47 48 47 45 42 42 41 40 39 38 36 37 38 36 36 37 36 36 36 37 38 40 40 40 41 44 47 47 47 47 48 48 46 44 44 44 44 44 45 48 54 56 53 49 45 42 41 42 43 44 45 45 45 46 46
60 59 57 57 58 57 55 54 52 50 49 47 46 46 44 43 44 44 44 43 44 49 51 48 49 51 52 50 49 50 49 49 47 46 47 45 41 40 39 39 39 38 36 34 36 37 35 34 36 35 35 36 37 39 40 39 39 41 44 45 46 45 46 46 45 44 42 41 41 42 44 45 48 53 53 48 46 43 41 41 43 44 44 45 45 46 46 46
60 59 57 57 57 55 53 52 50 48 46 46 45 44 42 42 43 43 42 41 42 43 47 47 46 47 48 47 47 48 47 47 45 44 45 43 39 38 38 39 39 36 33 33 37 37 33 34 35 34 34 35 37 39 38 37 38 42 43 43 44 43 43 43 42 40 39 38 39 40 44 46 48 51 50 46 44 42 40 41 43 44 44 45 45 45 45 45
61 59 58 57 55 53 51 50 48 46 45 44 44 42 41 42 43 42 41 41 40 40 42 44 43 42 44 44 46 47 46 46 44 42 42 41 39 38 38 39 37 34 32 33 36 35 33 33 34 33 34 36 37 37 35 35 39 41 40 41 42 41 40 39 38 38 37 37 37 39 43 46 48 50 48 43 41 40 38 40 42 42 42 43 43 44 44 44
61 60 58 54 52 50 49 48 46 44 44 43 42 41 41 41 41 40 41 42 40 39 40 42 42 42 43 43 44 45 44 44 41 39 41 41 38 38 38 37 36 33 32 34 36 35 32 32 32 32 34 35 35 34 33 36 38 37 37 40 40 39 39 37 37 38 36 36 37 39 42 44 45 46 44 40 39 39 39 41 42 41 41 42 42 43 44 44
61 59 56 52 50 49 48 47 44 42 43 42 41 40 40 40 38 37 41 44 43 41 42 43 42 42 42 42 43 44 42 42 39 37 40 40 38 38 37 36 35 33 33 35 36 34 32 31 31 33 34 34 34 33 34 37 37 36 37 40 39 38 38 37 37 37 36 37 38 40 41 41 42 43 41 39 38 38 40 41 41 40 40 41 42 43 43 44
60 58 55 51 48 48 47 46 43 41 42 41 40 40 39 38 35 36 41 45 46 45 44 44 43 43 43 43 44 43 41 40 38 37 39 40 38 37 37 36 34 33 33 35 35 32 30 30 32 32 33 33 32 33 35 37 37 37 38 39 39 38 37 36 36 36 35 37 39 41 41 40 40 40 39 38 37 37 38 38 37 36 36 37 39 41 41 42
59 57 54 50 47 46 46 44 41 40 40 40 39 39 38 36 35 37 41 44 47 48 48 47 46 45 45 45 45 44 41 39 38 36 38 40 38 37 37 36 34 34 35 35 34 31 30 30 31 31 31 31 30 32 35 36 37 37 38 39 39 38 37 36 36 36 36 37 38 39 39 38 38 37 36 36 36 37 37 36 35 32 32 34 37 39 39 40
58 56 53 49 46 45 44 42 40 39 39 39 39 38 37 37 38 39 40 42 46 47 47 47 47 47 47 46 46 45 42 40 38 36 37 39 39 37 37 37 35 35 35 34 32 31 30 32 32 32 32 31 31 34 35 36 36 37 38 39 39 38 37 37 37 37 38 38 38 39 37 34 33 34 34 34 35 35 34 35 34 31 31 34 37 37 38 40
57 55 52 49 46 43 41 40 39 38 38 39 38 38 38 39 39 39 40 42 44 43 41 42 44 46 47 47 47 46 44 41 39 38 37 38 39 38 38 37 35 35 35 33 32 32 31 32 33 32 32 31 32 35 35 34 34 35 36 37 37 36 36 37 37 37 37 37 38 38 34 30 31 33 33 32 32 32 32 33 34 34 35 36 36 36 38 39
56 55 52 48 44 41 39 38 38 38 38 38 38 39 40 40 39 39 41 42 41 39 37 38 40 42 43 45 45 45 44 42 42 40 38 39 40 39 38 37 35 36 34 32 32 31 31 32 32 31 30 31 32 34 34 33 33 34 36 37 37 37 37 37 37 37 37 37 38 35 32 31 33 34 32 31 31 32 32 32 32 34 36 36 35 35 36 37
56 54 50 45 41 38 38 37 37 37 37 38 38 39 40 40 40 40 41 41 40 38 37 38 39 39 40 40 41 42 43 43 44 42 39 40 40 39 38 36 36 36 34 31 30 30 30 31 30 29 30 30 32 33 33 32 33 34 36 38 39 38 37 37 37 37 37 38 37 35 33 33 33 32 32 32 32 32 32 31 31 32 33 34 35 34 33 34
54 50 45 41 38 37 37 37 37 37 38 38 39 39 40 41 40 41 42 42 40 38 37 39 40 39 38 38 39 40 40 42 45 41 38 40 40 38 38 37 37 35 32 31 30 30 30 29 29 29 30 30 31 32 33 32 33 35 37 39 38 37 38 38 38 38 38 38 37 35 34 33 32 32 32 32 32 32 31 30 31 32 32 33 33 31 30 31
48 44 40 37 36 36 37 37 37 37 38 39 40 40 41 41 41 42 43 43 41 39 38 40 40 37 37 37 39 40 40 41 43 40 37 38 38 38 38 38 37 35 33 32 32 31 31 30 30 30 30 30 30 31 32 32 33 35 37 39 38 37 37 38 39 39 39 38 37 36 34 32 32 32 33 33 32 30 28 28 30 31 30 29 28 26 26 27
40 37 36 36 36 36 37 37 37 38 40 40 40 41 41 41 42 43 44 43 42 40 40 42 40 36 36 37 39 41 41 40 41 40 39 38 37 38 39 38 37 35 33 32 31 31 31 32 33 33 32 31 30 31 31 31 32 34 35 35 35 36 37 38 39 39 39 38 37 36 34 32 33 33 34 34 30 26 25 25 27 28 27 27 26 22 21 22
34 33 35 36 36 37 37 37 38 39 40 41 41 41 42 43 44 45 45 45 45 44 44 44 40 37 37 38 40 43 43 40 40 42 41 39 37 37 38 38 37 36 34 32 32 32 32 32 33 34 33 32 32 31 31 31 32 33 33 33 34 35 35 37 38 38 38 38 37 36 34 34 34 35 35 33 29 27 26 24 26 29 29 28 27 26 25 26
33 33 34 35 36 37 38 39 39 39 40 40 41 42 43 44 46 46 46 47 47 45 44 42 40 38 39 40 43 45 43 40 41 42 41 40 38 36 37 38 37 36 35 33 33 33 32 32 34 35 35 34 33 31 30 30 31 32 32 33 34 36 36 37 37 37 38 38 37 36 36 35 35 35 34 32 28 27 26 26 27 31 31 32 32 32 34 35
33 33 34 35 36 38 39 39 40 40 41 42 42 43 44 45 47 48 48 48 48 45 43 41 40 39 40 42 44 45 44 42 43 44 43 41 40 38 37 37 36 36 36 34 33 33 33 33 35 36 36 35 33 32 31 31 31 31 32 34 35 36 37 37 37 38 38 37 37 37 37 37 37 36 33 30 27 26 25 26 26 29 30 32 34 35 36 36
33 33 34 35 37 38 39 40 40 41 42 43 43 44 44 46 48 49 49 49 48 45 43 43 42 41 41 43 45 47 47 45 43 44 43 42 41 40 38 37 36 36 36 36 34 34 34 35 36 37 36 34 33 32 32 32 31 30 32 33 35 36 37 37 37 38 38 37 37 38 38 38 38 36 34 31 28 25 25 26 26 28 31 32 33 35 37 37
33 34 35 35 36 38 40 40 40 41 42 43 44 44 45 47 49 49 50 49 47 45 45 45 45 44 44 46 49 49 50 48 44 43 43 42 42 42 40 38 38 38 38 37 36 36 35 36 37 38 36 34 33 32 32 33 32 31 31 33 35 36 36 36 37 37 37 36 37 37 37 37 37 34 33 34 33 29 29 29 28 31 35 33 33 36 38 40
32 34 36 36 37 38 39 39 40 41 41 41 42 43 43 45 47 48 49 48 46 46 47 47 46 46 48 51 52 52 53 50 47 46 45 43 44 44 41 40 41 40 39 39 38 37 36 36 36 37 37 36 34 33 33 33 33 32 33 33 34 36 36 37 37 37 37 37 37 38 37 38 37 34 32 35 37 36 35 34 33 36 38 35 34 37 41 43
32 34 35 36 37 37 37 37 36 37 37 38 39 39 40 42 42 43 46 45 44 46 48 48 47 49 51 53 53 54 54 51 49 49 47 45 46 45 43 42 42 42 42 41 40 38 37 37 36 36 37 37 37 36 35 35 34 33 34 34 35 36 36 37 38 38 38 39 39 40 41 40 40 37 35 37 40 40 40 38 37 40 41 38 36 38 42 46
32 33 34 34 34 34 33 33 33 33 34 35 36 36 37 39 39 39 41 40 38 42 46 48 50 51 52 53 54 54 54 52 51 51 49 48 47 46 45 44 43 44 44 44 42 40 40 39 38 38 38 39 38 38 38 37 36 35 35 36 36 36 36 37 38 38 38 39 40 42 43 43 42 42 41 41 43 44 45 45 42 41 43 44 41 39 40 45
31 31 31 30 30 29 28 29 29 29 30 31 32 33 33 36 36 36 37 36 36 40 44 47 49 50 52 54 55 55 55 54 52 51 50 50 50 49 47 46 46 46 46 45 44 43 42 41 41 41 40 40 40 41 41 40 39 38 38 38 38 39 38 37 39 39 39 39 40 41 43 43 43 43 44 45 47 48 48 49 46 44 44 46 46 43 41 44
28 28 28 27 27 25 25 25 25 25 26 27 28 29 30 32 33 34 34 35 36 39 42 43 45 46 50 54 56 57 57 56 54 53 52 52 52 52 51 49 49 48 47 46 45 44 44 44 44 44 43 42 43 44 43 42 41 42 42 42 42 42 41 40 41 41 41 41 41 42 43 43 43 44 45 46 49 51 50 49 47 44 45 47 49 48 46 46
25 25 25 25 25 24 23 22 22 22 22 23 24 25 26 27 29 31 33 34 35 38 39 40 40 42 46 51 54 56 58 57 56 55 55 55 54 55 54 53 52 51 50 48 46 46 48 47 46 45 45 46 45 44 43 41 41 43 45 45 44 43 43 44 44 43 42 42 41 42 42 42 43 45 46 46 47 50 51 51 49 46 45 47 50 50 50 49
22 23 23 24 24 23 22 20 20 19 19 19 20 21 22 23 25 28 30 31 32 35 36 36 37 39 43 47 51 53 56 57 57 56 55 55 54 55 55 55 54 53 53 51 49 50 52 51 48 47 48 48 47 46 47 45 45 46 48 48 47 46 46 46 46 45 43 42 40 39 41 43 44 45 46 45 46 47 48 49 51 52 50 50 51 52 53 53
Wind_Direction
255 255 256 256 257 257 258 258 258 259 259 260 261 262 263 264 265 265 266 266 267 268 268 269 269 269 268 267 266 265 265 264 263 262 262 261 260 260 259 259 259 259 259 259 259 259 259 259 259 259 259 259 258 258 257 257 257 257 256 256 256 255 254 254 254 255 257 258 258 258 259 259 259 260 260 260 260 260 261 260 261 262 262 262 262 262 263 264
255 256 256 257 257 258 258 258 258 259 259 260 261 262 263 264 264 265 266 267 267 268 268 268 268 268 267 266 265 265 265 264 263 263 262 261 260 259 259 258 258 258 258 258 258 258 258 259 259 259 258 258 258 257 257 257 256 256 255 255 255 254 254 254 255 255 256 257 258 259 260 260 260 260 260 260 260 260 260 260 260 260 262 262 262 262 263 263
256 256 257 257 258 258 258 258 259 259 260 261 262 262 263 263 264 265 266 267 267 267 267 267 267 267 266 265 265 265 264 264 263 263 262 261 260 260 259 258 258 258 258 258 257 257 257 258 258 258 258 258 257 257 257 256 256 255 254 253 253 253 254 255 255 256 256 257 258 259 260 261 261 260 260 260 259 259 259 259 259 260 261 262 263 263 263 263
256 257 258 258 259 259 259 260 260 261 261 262 262 263 263 264 265 265 266 267 267 267 267 266 266 266 265 265 265 265 264 264 264 263 263 262 261 260 260 259 258 258 258 258 257 257 257 257 257 257 257 257 257 257 256 256 255 254 253 252 252 253 255 255 256 257 257 257 258 259 260 261 260 260 259 258 258 258 259 259 260 261 261 262 263 264 263 263
258 258 259 260 260 261 262 262 262 263 263 263 263 264 264 265 265 265 265 266 266 267 267 267 267 267 266 265 265 265 265 265 265 264 264 263 262 262 261 261 260 259 258 258 258 258 258 257 257 257 257 256 256 256 256 255 254 254 253 252 253 254 255 255 256 257 257 258 258 259 260 260 260 260 258 257 257 257 258 259 260 261 262 262 263 263 263 263
260 260 261 261 262 263 263 264 264 264 264 264 264 264 265 265 264 263 262 262 262 263 264 265 267 268 268 267 266 266 266 266 266 266 265 264 264 263 262 262 261 260 260 259 259 259 258 258 257 257 256 256 256 256 255 255 255 254 253 253 254 255 255 255 256 257 258 258 258 259 259 260 260 259 258 257 256 256 257 259 261 261 262 262 263 263 263 263
262 262 263 263 263 264 264 264 265 265 264 264 264 263 262 261 260 258 258 258 259 260 261 263 266 268 268 268 268 267 267 267 267 267 266 265 265 264 263 263 262 262 261 261 260 260 259 259 258 257 257 257 256 255 255 255 255 254 254 254 254 255 256 256 256 257 257 258 258 259 259 259 259 258 258 257 256 256 258 259 260 261 261 261 262 262 262 263
264 264 264 264 264 264 264 264 264 263 263 262 261 261 259 257 256 256 256 257 258 259 261 263 266 267 267 268 268 268 267 268 268 268 268 267 266 265 265 265 264 263 263 262 262 261 260 260 259 258 258 257 256 256 256 255 255 254 254 254 254 255 256 256 256 257 257 257 257 258 258 258 258 257 257 257 257 257 258 259 259 260 259 259 260 261 262 262
264 264 264 264 264 264 264 264 263 262 261 260 259 258 258 257 257 256 256 257 259 260 262 264 266 267 268 268 268 268 268 268 269 269 269 268 268 267 267 266 266 265 264 263 263 262 261 261 260 259 258 258 257 257 256 256 254 253 253 253 254 255 256 257 257 257 257 257 257 257 257 257 257 256 256 256 257 257 257 257 258 259 259 259 259 260 261 261
264 264 264 264 264 264 263 263 262 261 260 259 257 257 256 257 257 258 258 259 261 263 265 266 267 268 268 268 268 268 269 269 269 269 269 269 269 268 268 267 266 266 265 264 264 263 262 261 260 260 259 258 257 256 256 255 253 252 252 253 254 255 256 257 257 257 257 257 257 257 257 257 257 256 255 256 256 256 256 257 257 257 258 259 258 258 259 260
263 263 263 263 263 263 263 262 261 260 259 258 257 256 255 256 257 258 259 260 262 264 266 268 269 269 268 268 268 269 269 269 269 269 269 269 269 269 268 268 267 266 266 265 264 263 263 262 261 260 259 258 257 256 255 254 253 252 252 253 253 254 255 256 256 255 255 255 255 255 256 256 256 255 254 254 255 256 256 256 257 257 257 258 258 257 257 258
263 262 262 261 261 260 260 260 260 260 259 259 258 257 256 256 256 257 258 260 261 263 266 267 268 268 268 268 268 268 269 269 269 269 269 269 269 269 269 269 268 267 267 267 266 265 264 262 261 260 258 257 256 255 254 254 253 252 251 252 252 253 254 255 255 255 254 254 253 253 253 254 254 253 253 253 254 254 254 255 256 257 257 258 257 257 256 257
262 262 261 260 259 258 257 257 258 258 259 259 259 259 258 258 258 258 259 260 261 263 264 265 266 267 267 267 267 268 268 268 269 269 269 269 269 270 270 270 270 270 269 268 267 266 264 263 261 260 258 257 256 255 254 253 252 252 251 250 250 251 252 253 253 253 253 252 252 251 252 253 254 253 253 252 252 254 254 255 256 256 256 257 257 256 257 258
261 261 260 260 260 259 259 258 258 258 258 258 259 259 260 260 260 260 260 261 262 263 264 264 265 266 266 266 266 266 267 267 268 269 269 270 270 270 270 271 271 271 270 269 268 266 264 263 261 259 257 256 255 254 254 252 252 251 250 249 249 250 250 250 250 250 250 250 249 249 249 252 254 254 253 252 251 253 253 254 255 255 255 255 255 256 257 258
260 260 260 260 260 260 260 260 259 259 259 259 259 259 260 260 261 262 262 263 263 264 264 264 265 265 265 265 265 265 266 267 267 268 269 269 270 270 271 272 272 271 270 269 268 267 265 263 261 259 257 255 254 253 252 251 250 250 249 248 248 248 248 248 249 249 249 248 248 247 248 250 253 253 252 251 250 251 252 252 254 254 253 253 254 256 257 257
262 262 261 261 260 260 260 260 260 260 260 260 260 260 261 261 262 262 263 263 263 264 264 264 264 264 265 265 265 266 266 266 267 267 268 269 271 271 272 272 271 271 270 269 268 266 265 263 261 259 257 255 253 252 251 250 249 248 246 245 245 244 245 246 246 246 247 247 247 247 247 249 251 251 251 251 249 249 250 250 251 252 252 253 254 255 256 256
265 265 264 263 262 262 261 260 260 260 260 261 261 261 261 262 262 263 263 263 263 263 263 263 263 264 264 265 265 266 266 266 267 267 268 269 271 272 271 271 271 270 269 268 267 265 263 262 260 258 256 254 252 250 249 248 246 244 243 242 242 242 243 245 245 245 246 246 246 246 246 246 248 249 250 250 247 246 248 248 249 251 253 253 253 253 253 254
267 267 267 267 266 265 264 263 263 263 262 262 262 262 262 263 263 264 265 265 264 262 261 261 262 263 263 264 265 265 266 266 267 267 268 269 270 270 270 270 270 269 268 267 265 264 263 261 259 257 254 251 249 248 246 245 243 243 242 242 243 244 245 247 247 247 247 247 246 245 245 244 245 248 248 248 246 244 245 246 247 250 252 254 253 252 252 252
270 270 270 270 269 268 267 266 266 265 265 265 265 264 264 264 265 265 266 266 265 262 261 261 261 261 262 263 264 264 265 266 267 267 267 268 268 269 269 269 268 268 267 266 264 263 262 260 257 254 251 248 247 246 245 244 244 244 244 244 245 245 245 246 246 246 245 245 245 244 244 243 244 247 248 247 245 243 243 244 246 248 250 253 253 251 250 252
274 275 275 274 272 271 270 269 268 268 268 267 267 267 267 267 267 267 267 267 265 263 261 260 260 260 261 262 263 263 264 265 266 266 267 267 267 267 266 267 267 267 266 265 264 263 260 257 253 250 248 247 246 245 245 246 246 245 245 245 244 243 242 242 242 242 241 241 242 243 243 243 245 247 248 247 245 243 242 242 243 245 247 250 252 251 250 251
277 279 279 277 275 273 272 272 271 271 270 270 269 269 269 269 268 268 267 267 265 262 261 259 259 259 259 260 261 262 263 264 265 265 266 266 266 265 264 266 267 266 265 266 264 261 257 253 250 249 248 248 246 245 245 246 245 244 244 243 243 241 239 239 240 241 240 239 239 240 241 243 244 246 246 246 244 242 239 239 240 243 245 248 251 251 250 249
280 281 280 279 278 277 276 275 274 273 272 272 271 270 269 268 267 266 266 265 263 261 259 258 258 259 259 259 259 261 262 263 264 265 266 265 264 263 264 265 265 265 265 264 262 259 255 252 251 250 250 249 248 246 246 246 245 244 243 242 241 239 238 238 239 241 241 238 239 240 239 241 242 243 243 243 242 241 238 237 240 243 245 246 248 250 249 248
282 282 281 280 280 280 279 278 277 277 275 274 273 270 268 267 266 266 264 262 262 261 258 258 258 258 259 257 258 260 261 261 263 264 265 265 263 262 264 264 263 264 264 262 259 257 254 253 252 251 250 249 247 246 246 246 244 242 240 239 238 237 237 239 240 241 241 239 239 240 239 240 242 243 243 241 241 240 239 239 240 242 243 243 245 247 247 247
282 281 281 281 282 282 281 281 280 280 279 277 273 270 267 266 265 265 264 263 263 262 259 258 258 257 258 258 258 258 259 261 262 263 263 264 264 262 262 262 262 261 260 258 257 255 253 253 252 250 249 248 246 245 244 244 242 239 238 237 237 237 238 239 240 241 240 237 237 239 238 240 242 243 242 241 240 240 240 241 240 240 240 241 242 243 244 244
281 281 281 281 282 282 282 282 282 282 280 277 273 269 267 266 266 266 265 264 263 262 259 257 256 256 257 258 257 257 258 260 261 262 262 262 262 260 259 260 259 258 256 255 255 254 252 251 251 249 248 247 246 244 242 241 239 237 236 236 238 238 238 239 239 239 238 235 236 238 238 237 239 241 241 241 241 241 241 241 240 239 238 238 239 240 241 242
281 280 281 281 281 282 283 283 283 282 279 275 271 269 268 268 268 267 265 263 259 260 259 255 254 256 256 256 256 257 257 258 259 260 260 258 258 259 258 257 256 254 254 254 254 253 250 250 250 248 247 245 243 242 240 238 237 235 235 236 237 236 237 238 238 237 236 235 236 238 237 235 236 239 240 242 243 242 241 240 239 238 238 238 238 238 239 241
281 280 280 280 281 282 283 283 283 280 276 273 270 269 270 271 270 267 265 262 258 258 259 255 252 254 255 255 255 255 255 256 257 257 257 257 257 256 256 254 252 250 250 251 252 251 249 249 249 247 245 243 241 239 237 236 235 235 235 236 236 236 236 237 238 237 236 235 235 235 235 233 235 239 240 241 242 242 239 237 237 237 237 238 238 238 240 242
280 279 279 280 281 282 283 283 282 278 274 272 271 271 272 271 269 267 264 260 257 255 256 254 251 253 255 255 254 253 253 254 253 254 256 256 254 252 252 250 249 248 248 250 251 250 248 248 248 246 244 241 239 238 238 236 235 235 235 236 236 236 236 237 238 237 235 234 233 234 234 233 234 238 239 238 239 240 239 238 237 237 237 238 239 240 241 243
278 278 279 280 281 282 282 282 280 277 273 271 271 271 271 269 268 266 262 257 254 252 252 253 252 251 251 252 252 252 252 252 252 252 253 254 252 250 248 247 247 246 246 248 250 249 247 247 247 244 242 240 239 238 237 236 234 234 235 236 236 236 236 235 235 234 232 231 230 231 234 234 235 239 240 238 238 238 238 238 238 237 236 238 239 240 241 242
276 277 279 280 281 281 281 280 278 275 272 270 271 270 269 267 267 265 259 254 252 249 248 249 249 248 248 249 252 252 252 252 251 250 251 250 249 247 245 243 243 243 243 246 248 247 245 246 245 242 240 239 238 236 235 234 234 234 234 234 234 234 233 232 231 231 229 228 228 229 233 235 236 240 241 239 237 235 234 235 237 236 235 236 237 238 239 241
276 278 279 280 280 280 280 278 276 272 270 270 270 269 267 267 267 262 254 249 249 248 246 246 247 249 250 250 253 253 253 252 249 247 248 248 245 244 243 240 240 241 241 244 246 246 245 244 244 241 239 238 236 234 232 232 232 230 229 232 232 231 231 229 229 229 227 225 225 226 230 232 235 238 238 237 235 233 233 234 236 237 236 237 237 238 239 240
276 278 279 279 279 280 278 276 273 269 268 269 268 266 266 266 264 257 250 247 246 245 244 245 246 247 249 250 252 253 252 251 248 244 245 246 243 241 239 237 237 239 240 242 243 244 244 244 244 242 240 238 236 234 233 231 230 227 226 229 230 230 230 229 228 229 228 227 227 228 228 230 232 235 236 235 232 231 231 233 235 236 237 238 238 239 239 240
276 277 278 278 279 279 276 273 270 267 266 267 266 265 264 263 259 254 251 248 246 244 243 243 244 245 246 248 251 253 252 250 246 241 242 244 241 238 236 235 235 237 238 240 241 241 242 242 242 241 239 236 233 233 232 231 229 227 226 227 228 228 227 226 226 225 225 227 229 230 230 230 233 234 234 234 232 230 230 230 229 230 234 235 236 237 238 239
275 276 277 279 279 277 274 270 267 265 265 265 264 263 261 257 255 254 253 250 248 246 245 246 247 247 248 250 252 253 252 248 243 238 238 241 239 234 233 233 233 236 237 238 239 239 240 241 241 239 237 233 230 230 230 229 228 227 227 227 228 228 227 226 225 223 223 225 227 229 229 229 231 233 232 231 232 231 230 230 227 224 228 232 233 234 236 237
274 276 278 279 278 275 270 266 264 263 263 263 262 261 258 255 255 255 254 253 252 251 250 250 249 249 249 250 251 252 250 245 240 234 231 237 238 233 230 231 233 236 237 238 239 239 239 241 241 241 240 236 231 231 230 229 228 228 228 228 229 229 228 227 226 225 225 225 228 230 228 226 227 230 229 229 231 231 229 230 227 222 225 231 232 231 233 235
274 277 279 278 275 270 265 263 262 262 261 260 260 258 257 257 256 255 255 255 256 255 252 250 248 246 246 246 246 247 245 242 238 232 227 231 236 233 229 230 233 235 235 235 237 239 240 243 243 243 243 239 236 234 232 229 227 225 225 225 225 225 226 227 227 226 225 226 228 229 225 221 223 226 226 224 225 227 226 227 228 227 230 233 234 232 233 235
274 277 278 276 270 264 261 261 261 261 260 259 258 257 258 258 257 256 256 256 256 255 252 249 246 244 243 242 242 242 241 241 239 233 226 227 233 232 229 229 232 234 235 235 237 239 241 244 245 244 243 241 238 236 234 230 227 224 223 224 224 222 223 224 226 226 226 226 227 226 223 221 222 224 224 223 223 223 224 224 225 227 229 231 233 233 235 237
274 275 274 269 265 261 260 260 260 259 259 259 258 258 257 257 256 256 255 255 255 253 252 250 248 245 243 242 241 240 238 239 241 237 228 227 230 231 230 230 232 233 233 233 233 235 238 241 243 243 243 241 238 236 233 230 227 224 223 224 224 222 222 223 223 224 225 226 226 225 223 222 221 221 223 224 223 223 223 223 223 226 227 229 234 236 237 239
273 271 267 263 260 260 260 260 260 260 259 259 258 257 256 256 255 255 254 254 254 252 250 249 249 247 245 243 241 240 237 237 241 242 235 230 229 231 231 231 232 232 231 231 232 233 235 236 237 238 239 239 238 236 235 232 229 227 226 226 224 222 223 223 223 224 225 225 225 224 223 221 220 220 221 222 223 226 230 232 231 231 231 232 234 235 237 240
267 265 263 261 260 259 260 260 261 261 261 260 259 257 256 256 255 254 254 254 253 252 249 249 248 247 245 243 241 241 238 236 238 241 240 234 229 229 232 232 233 233 231 231 233 233 235 236 237 236 236 236 236 235 234 232 231 231 231 231 229 226 224 224 225 226 226 226 225 224 221 219 219 220 222 222 221 222 231 240 243 239 234 231 227 225 232 243
262 260 261 261 262 263 262 262 262 261 261 260 259 258 256 255 254 253 252 251 250 248 246 246 246 244 243 242 240 240 239 235 235 238 239 236 230 229 232 234 235 235 233 231 231 231 233 236 238 238 236 235 234 234 233 231 230 231 230 230 229 228 226 225 226 227 227 227 227 225 222 220 219 219 222 222 217 213 214 224 239 240 234 227 218 209 212 224
260 260 261 263 264 265 266 266 265 264 262 260 259 257 256 255 254 253 252 251 249 248 247 246 246 244 242 240 240 240 239 236 235 236 237 236 233 230 232 234 236 237 236 233 231 231 231 232 236 238 238 236 235 234 233 232 231 230 228 226 226 226 224 223 224 225 226 227 226 226 223 221 221 221 222 222 216 210 206 208 225 236 233 228 221 212 209 212
263 263 265 266 267 267 267 267 267 266 264 262 260 258 256 255 254 253 252 251 251 250 249 248 246 243 241 241 241 242 240 237 234 234 234 234 233 231 231 234 236 238 239 236 233 232 231 231 234 237 238 238 237 236 234 233 231 229 228 226 225 226 225 223 222 223 225 226 225 226 224 222 222 220 219 218 212 206 201 202 218 233 235 231 227 221 217 214
267 268 268 269 270 270 270 269 268 266 265 264 262 260 257 255 254 253 252 251 250 249 247 246 244 241 239 239 240 241 241 239 236 236 235 233 232 231 230 232 236 238 239 238 236 234 232 231 234 237 237 237 238 237 236 235 232 229 229 228 226 225 225 224 223 223 223 224 225 226 226 225 224 220 216 211 201 198 203 207 218 230 235 234 230 225 220 216
272 273 272 272 272 272 272 272 271 269 267 265 264 261 258 256 254 253 251 250 249 247 245 242 240 239 237 236 236 237 238 237 236 237 237 235 234 233 230 230 233 235 237 238 237 236 234 232 235 238 238 237 236 236 236 236 233 229 228 228 227 226 225 224 223 222 222 222 223 225 226 227 227 222 215 206 194 192 204 211 218 227 232 235 233 226 220 216
274 275 276 276 276 275 275 275 273 272 269 267 264 262 259 256 254 253 252 249 247 246 244 241 239 236 235 235 234 234 235 234 233 234 234 233 234 234 231 230 231 232 234 237 237 237 236 234 235 238 239 238 236 234 234 235 234 232 230 228 227 227 225 223 222 221 219 219 219 222 224 224 225 221 215 208 199 196 202 210 219 228 231 234 235 228 220 217
275 277 278 279 280 280 279 277 275 272 269 267 264 262 260 257 254 252 251 249 245 244 243 241 239 236 235 235 235 235 235 233 231 232 231 230 231 232 231 231 232 231 232 234 235 236 236 235 235 237 238 238 237 235 233 232 232 233 233 232 230 229 227 225 223 221 219 218 217 220 223 223 222 219 215 212 206 201 203 209 217 224 227 230 233 230 223 218
279 279 280 281 281 281 280 278 275 272 269 267 264 261 259 258 255 252 251 249 244 241 240 238 236 235 234 235 236 237 237 235 232 232 231 230 230 230 228 228 230 231 231 232 232 233 234 235 235 235 235 236 236 234 232 231 230 230 232 232 231 231 230 228 227 225 223 221 218 220 223 225 224 220 216 213 210 206 208 213 215 219 223 226 230 230 226 221
283 283 283 283 282 281 280 279 276 273 269 266 264 261 257 255 254 252 250 248 243 239 237 236 235 234 233 233 234 234 235 235 233 232 231 229 228 228 227 225 226 229 231 231 231 231 232 233 234 234 234 233 232 232 231 230 230 229 230 231 231 232 232 232 230 229 227 226 224 222 223 225 226 224 220 215 213 211 212 216 219 221 222 225 228 230 228 223
286 288 289 289 289 288 287 284 281 277 272 267 264 262 258 254 253 251 248 245 241 239 237 236 234 233 232 232 233 233 233 233 232 231 230 229 227 227 225 223 223 226 228 229 230 230 232 232 232 233 233 231 230 231 233 233 233 231 229 229 231 233 233 232 232 230 229 229 229 228 227 226 226 227 225 221 218 217 218 219 221 223 224 225 227 229 228 225
290 293 295 296 297 296 295 292 290 285 279 272 267 263 259 254 251 249 247 243 241 240 239 237 235 232 232 232 232 232 232 232 231 230 228 228 227 226 225 223 222 222 224 225 227 228 229 230 231 232 233 233 233 234 234 234 234 234 231 229 229 232 233 233 232 232 231 231 231 232 231 229 227 228 227 225 222 221 222 223 221 221 224 227 228 229 230 229
296 298 299 301 302 303 304 303 300 295 287 280 273 267 261 256 251 248 246 244 242 240 240 239 236 233 232 232 232 232 232 232 232 231 229 228 228 227 227 225 223 222 223 222 223 225 226 226 227 228 230 232 234 233 232 230 229 232 234 231 228 229 232 233 234 234 234 234 233 235 234 231 228 228 229 229 227 224 223 225 225 224 225 228 229 230 232 232
Height
10668 10669 10670 10671 10672 10673 10674 10675 10676 10677 10678 10680 10681 10681 10682 10683 10684 10684 10685 10686 10687 10688 10688 10689 10690 10691 10692 10692 10692 10693 10693 10693 10693 10695 10697 10697 10699 10700 10702 10703 10703 10704 10705 10707 10708 10708 10708 10711 10713 10717 10719 10719 10722 10724 10728 10731 10734 10742 10746 10747 10744 10738 10729 10720 10720 10729 10735 10739 10743 10746 10747 10752 10758 10766 10775 10782 10781 10777 10774 10773 10773 10774 10776 10780 10785 10790 10793 10795
10661 10662 10663 10664 10665 10666 10667 10668 10669 10670 10671 10672 10673 10674 10675 10676 10676 10677 10677 10678 10679 10680 10681 10682 10683 10684 10684 10685 10685 10685 10685 10686 10686 10688 10689 10689 10692 10693 10694 10696 10696 10696 10698 10700 10700 10701 10702 10704 10707 10709 10710 10711 10713 10717 10721 10724 10728 10735 10738 10739 10735 10723 10715 10712 10717 10726 10731 10734 10737 10740 10741 10746 10753 10760 10769 10774 10773 10769 10765 10764 10767 10769 10769 10772 10778 10783 10786 10788
10654 10655 10656 10657 10658 10659 10660 10661 10662 10663 10664 10665 10666 10667 10668 10668 10669 10669 10670 10671 10672 10673 10674 10675 10676 10676 10677 10677 10678 10678 10678 10678 10679 10681 10682 10682 10684 10686 10686 10688 10689 10689 10691 10692 10692 10694 10695 10698 10700 10701 10703 10704 10706 10710 10714 10716 10722 10727 10729 10732 10723 10710 10707 10708 10713 10720 10726 10730 10732 10734 10735 10739 10746 10752 10762 10766 10762 10759 10756 10756 10759 10763 10765 10767 10771 10776 10778 10780
10647 10648 10649 10650 10651 10652 10653 10654 10654 10655 10656 10657 10659 10659 10660 10661 10661 10662 10662 10663 10664 10665 10666 10667 10668 10669 10670 10670 10670 10671 10671 10671 10672 10673 10675 10675 10677 10678 10679 10680 10681 10682 10684 10684 10685 10687 10690 10691 10693 10694 10696 10697 10698 10703 10706 10708 10713 10718 10723 10723 10710 10702 10702 10702 10707 10716 10721 10725 10727 10728 10729 10733 10737 10744 10754 10756 10752 10750 10748 10749 10754 10758 10760 10762 10765 10769 10770 10771
10640 10641 10642 10643 10644 10645 10645 10646 10647 10648 10649 10650 10651 10652 10652 10653 10654 10654 10655 10656 10657 10658 10659 10660 10661 10662 10663 10663 10663 10664 10664 10664 10665 10666 10667 10668 10669 10671 10672 10673 10673 10675 10676 10677 10678 10681 10682 10684 10686 10687 10689 10689 10692 10696 10697 10700 10706 10711 10715 10712 10701 10697 10695 10695 10704 10710 10715 10720 10722 10722 10724 10727 10729 10736 10745 10747 10746 10743 10742 10745 10749 10751 10754 10757 10759 10761 10762 10763
10633 10634 10635 10636 10637 10637 10638 10639 10639 10640 10641 10642 10643 10644 10644 10645 10646 10647 10648 10649 10650 10651 10652 10653 10654 10655 10656 10656 10656 10657 10657 10657 10657 10658 10659 10661 10662 10663 10664 10665 10666 10667 10668 10669 10671 10673 10674 10677 10678 10679 10680 10682 10685 10687 10688 10693 10700 10705 10707 10702 10694 10690 10686 10690 10701 10704 10709 10714 10716 10716 10718 10721 10722 10727 10734 10738 10739 10736 10737 10742 10743 10745 10748 10751 10751 10752 10755 10756
10625 10626 10627 10628 10629 10630 10630 10631 10631 10632 10633 10634 10634 10636 10636 10637 10639 10640 10641 10642 10644 10645 10645 10646 10647 10648 10649 10649 10649 10649 10650 10650 10650 10650 10651 10654 10655 10655 10656 10657 10658 10659 10660 10661 10663 10664 10667 10669 10669 10670 10672 10674 10677 10679 10680 10686 10694 10697 10698 10694 10686 10682 10679 10685 10695 10697 10703 10707 10709 10711 10712 10714 10715 10718 10725 10728 10728 10729 10735 10738 10737 10739 10742 10744 10743 10745 10748 10750
10618 10618 10619 10620 10621 10622 10622 10623 10623 10624 10625 10626 10627 10628 10629 10630 10631 10633 10634 10636 10637 10638 10639 10639 10640 10641 10642 10642 10642 10642 10643 10644 10643 10643 10643 10645 10647 10648 10649 10650 10650 10651 10652 10653 10655 10656 10658 10659 10660 10663 10665 10665 10669 10671 10673 10680 10687 10688 10687 10684 10678 10675 10673 10679 10689 10692 10697 10700 10702 10705 10705 10707 10708 10709 10717 10719 10718 10725 10731 10732 10730 10731 10733 10736 10738 10738 10741 10744
10610 10611 10612 10612 10613 10614 10614 10615 10616 10617 10617 10618 10619 10620 10622 10623 10624 10626 10627 10629 10630 10631 10632 10633 10634 10635 10635 10635 10634 10634 10635 10637 10636 10635 10635 10636 10639 10640 10641 10641 10642 10643 10644 10645 10647 10648 10649 10650 10652 10655 10656 10658 10662 10663 10665 10672 10678 10678 10676 10674 10671 10669 10667 10673 10683 10686 10690 10693 10695 10698 10698 10699 10698 10702 10711 10711 10712 10719 10723 10723 10723 10724 10725 10729 10732 10732 10734 10737
10603 10604 10604 10605 10605 10606 10607 10607 10608 10609 10610 10611 10612 10613 10614 10616 10617 10619 10621 10622 10623 10624 10625 10626 10627 10627 10627 10627 10627 10627 10628 10630 10628 10628 10628 10629 10631 10632 10632 10633 10634 10635 10636 10637 10638 10639 10640 10642 10644 10647 10648 10650 10653 10654 10656 10662 10665 10666 10667 10667 10666 10663 10661 10666 10675 10679 10682 10685 10689 10691 10692 10691 10688 10696 10705 10704 10705 10712 10716 10715 10715 10717 10718 10720 10723 10726 10727 10731
10596 10597 10597 10598 10598 10599 10600 10600 10601 10602 10602 10603 10604 10606 10607 10608 10610 10612 10614 10615 10616 10617 10618 10619 10620 10620 10620 10619 10620 10621 10621 10621 10621 10621 10621 10622 10623 10624 10624 10624 10626 10628 10628 10629 10630 10631 10632 10634 10636 10640 10640 10640 10643 10645 10648 10652 10654 10658 10660 10660 10659 10656 10655 10659 10666 10670 10673 10678 10681 10683 10684 10680 10679 10689 10696 10697 10700 10706 10708 10707 10707 10710 10711 10712 10714 10717 10720 10727
10589 10590 10591 10591 10592 10592 10593 10593 10594 10595 10595 10596 10597 10599 10600 10601 10603 10605 10607 10608 10609 10610 10611 10612 10612 10612 10612 10611 10613 10615 10614 10613 10614 10614 10614 10614 10615 10616 10616 10616 10618 10620 10621 10622 10622 10623 10624 10626 10629 10631 10631 10632 10634 10636 10639 10642 10644 10649 10652 10653 10650 10649 10650 10653 10657 10660 10665 10671 10672 10675 10675 10669 10671 10681 10686 10691 10696 10698 10700 10701 10700 10703 10704 10703 10704 10707 10713 10723
10582 10583 10584 10584 10585 10586 10586 10587 10587 10588 10588 10589 10590 10591 10592 10594 10596 10598 10600 10601 10602 10603 10604 10605 10605 10605 10604 10604 10608 10609 10607 10607 10607 10607 10606 10606 10608 10609 10609 10609 10611 10612 10613 10615 10614 10615 10616 10618 10621 10622 10622 10624 10625 10627 10630 10633 10636 10640 10643 10644 10641 10642 10646 10645 10647 10651 10656 10661 10662 10667 10667 10659 10663 10672 10677 10686 10692 10692 10694 10694 10693 10695 10696 10694 10694 10699 10708 10719
10575 10576 10577 10577 10578 10579 10580 10580 10581 10581 10581 10582 10582 10584 10585 10587 10588 10591 10593 10594 10595 10595 10597 10598 10597 10597 10596 10597 10601 10601 10600 10601 10599 10600 10600 10598 10600 10602 10602 10602 10605 10605 10605 10606 10606 10607 10608 10609 10612 10613 10614 10616 10617 10619 10621 10624 10629 10631 10634 10636 10633 10636 10639 10635 10638 10643 10646 10650 10653 10658 10659 10652 10656 10663 10668 10680 10687 10687 10688 10687 10685 10686 10687 10685 10687 10695 10705 10713
10569 10569 10570 10570 10571 10572 10572 10573 10573 10573 10574 10574 10575 10576 10577 10579 10581 10583 10585 10586 10587 10588 10590 10590 10589 10589 10588 10589 10593 10593 10593 10594 10593 10594 10592 10590 10592 10595 10596 10595 10596 10597 10596 10598 10598 10599 10600 10602 10604 10605 10606 10608 10609 10611 10613 10616 10621 10622 10625 10627 10625 10629 10629 10626 10631 10635 10636 10640 10644 10650 10652 10649 10650 10653 10658 10672 10683 10681 10681 10681 10678 10676 10676 10676 10683 10693 10702 10706
10562 10563 10563 10564 10564 10564 10565 10565 10565 10565 10566 10566 10567 10568 10569 10570 10573 10575 10577 10578 10580 10580 10582 10582 10581 10582 10581 10580 10585 10586 10586 10587 10587 10587 10584 10583 10585 10588 10590 10588 10587 10588 10588 10590 10591 10591 10592 10594 10596 10597 10599 10601 10602 10603 10605 10609 10612 10613 10616 10616 10616 10619 10619 10618 10623 10626 10627 10631 10638 10644 10646 10647 10644 10643 10650 10665 10676 10676 10673 10674 10671 10666 10665 10671 10682 10692 10697 10699
10556 10556 10557 10557 10557 10557 10557 10557 10557 10558 10558 10558 10559 10560 10561 10562 10565 10567 10569 10570 10571 10572 10573 10574 10573 10574 10573 10572 10577 10579 10578 10579 10580 10579 10578 10578 10579 10580 10581 10580 10580 10581 10581 10582 10583 10584 10585 10587 10589 10590 10591 10594 10594 10596 10599 10602 10601 10602 10605 10606 10607 10611 10611 10612 10615 10617 10620 10625 10633 10637 10639 10642 10637 10634 10645 10658 10667 10669 10666 10666 10664 10658 10658 10668 10680 10688 10691 10691
10549 10550 10550 10550 10549 10550 10550 10550 10550 10550 10551 10551 10551 10551 10553 10554 10557 10559 10561 10561 10562 10562 10564 10566 10565 10566 10564 10565 10570 10571 10570 10571 10572 10572 10572 10573 10574 10573 10573 10573 10573 10574 10574 10575 10576 10577 10579 10580 10582 10583 10584 10585 10586 10589 10592 10591 10590 10593 10597 10599 10602 10607 10609 10610 10610 10611 10616 10621 10627 10629 10632 10636 10630 10628 10640 10650 10658 10662 10660 10659 10656 10653 10655 10663 10674 10683 10684 10683
10543 10543 10543 10542 10542 10541 10541 10542 10542 10543 10543 10542 10542 10543 10544 10547 10549 10551 10553 10553 10552 10553 10556 10558 10557 10556 10556 10558 10561 10562 10562 10564 10564 10564 10565 10566 10567 10567 10566 10566 10566 10567 10567 10567 10569 10572 10573 10574 10576 10575 10575 10577 10579 10583 10584 10582 10584 10589 10592 10596 10600 10605 10607 10605 10602 10604 10610 10615 10620 10623 10625 10628 10624 10624 10635 10643 10650 10654 10653 10653 10651 10650 10654 10659 10667 10675 10676 10675
10536 10536 10536 10535 10534 10534 10533 10533 10534 10534 10534 10533 10534 10534 10536 10539 10541 10542 10545 10544 10543 10544 10547 10549 10548 10547 10548 10551 10553 10554 10555 10556 10556 10556 10558 10560 10561 10561 10559 10559 10560 10560 10560 10561 10564 10567 10567 10567 10567 10566 10567 10571 10575 10577 10577 10577 10580 10585 10588 10593 10596 10599 10599 10595 10592 10595 10602 10609 10614 10617 10619 10621 10621 10623 10629 10635 10641 10645 10647 10648 10646 10648 10653 10656 10660 10666 10669 10668
10529 10528 10528 10527 10526 10525 10525 10525 10526 10526 10525 10525 10526 10526 10528 10531 10532 10534 10536 10535 10534 10536 10538 10539 10540 10537 10539 10545 10545 10545 10548 10548 10548 10549 10551 10553 10554 10554 10553 10554 10553 10553 10554 10556 10558 10559 10560 10559 10559 10560 10563 10567 10570 10571 10571 10572 10575 10580 10584 10587 10589 10590 10588 10583 10584 10588 10597 10606 10609 10610 10614 10616 10617 10619 10622 10627 10631 10635 10639 10641 10641 10645 10652 10655 10655 10657 10661 10662
10522 10521 10520 10519 10518 10517 10517 10518 10517 10517 10517 10517 10518 10519 10519 10521 10523 10525 10528 10526 10523 10526 10529 10530 10531 10529 10531 10537 10537 10538 10541 10540 10540 10542 10544 10547 10547 10547 10548 10548 10547 10546 10549 10550 10551 10552 10553 10552 10553 10557 10560 10562 10564 10565 10566 10567 10570 10575 10578 10581 10581 10579 10577 10576 10581 10586 10594 10604 10604 10605 10610 10610 10611 10613 10616 10619 10622 10626 10631 10636 10640 10645 10650 10652 10650 10651 10654 10656
10514 10514 10513 10511 10511 10510 10509 10509 10509 10509 10509 10509 10510 10510 10511 10512 10514 10517 10520 10518 10513 10517 10521 10522 10523 10521 10521 10527 10531 10533 10533 10531 10534 10536 10537 10538 10539 10542 10543 10541 10540 10542 10544 10544 10544 10546 10546 10547 10550 10553 10554 10556 10557 10559 10560 10562 10565 10569 10571 10572 10569 10568 10571 10574 10579 10583 10591 10600 10599 10600 10605 10605 10606 10608 10609 10611 10614 10619 10626 10634 10640 10643 10646 10646 10645 10646 10648 10650
10507 10507 10506 10504 10504 10502 10501 10501 10502 10502 10501 10501 10501 10502 10503 10504 10507 10509 10511 10512 10508 10508 10513 10516 10515 10512 10512 10519 10526 10526 10524 10525 10528 10530 10531 10531 10532 10536 10536 10533 10535 10537 10537 10538 10539 10539 10542 10543 10545 10547 10548 10549 10551 10553 10555 10556 10558 10562 10563 10562 10560 10563 10568 10570 10574 10579 10587 10594 10592 10593 10599 10601 10602 10601 10600 10602 10608 10616 10624 10631 10637 10639 10640 10640 10640 10641 10642 10644
10500 10500 10499 10497 10497 10495 10494 10494 10495 10495 10494 10493 10494 10495 10496 10497 10501 10503 10503 10506 10503 10497 10504 10509 10506 10503 10507 10513 10517 10517 10518 10519 10520 10523 10525 10524 10525 10529 10529 10528 10530 10531 10531 10533 10534 10534 10537 10538 10539 10541 10542 10544 10546 10547 10548 10550 10552 10555 10555 10554 10555 10560 10564 10565 10570 10576 10582 10587 10587 10588 10593 10597 10596 10591 10590 10596 10604 10614 10622 10628 10631 10633 10634 10634 10635 10636 10637 10637
10492 10493 10492 10491 10489 10488 10487 10487 10488 10488 10486 10486 10487 10488 10489 10491 10494 10495 10495 10498 10495 10488 10494 10501 10497 10496 10501 10506 10508 10510 10512 10512 10514 10517 10516 10516 10520 10522 10523 10523 10524 10525 10526 10529 10528 10528 10532 10533 10533 10535 10537 10538 10540 10540 10542 10544 10547 10548 10548 10548 10551 10556 10559 10560 10565 10571 10577 10582 10584 10586 10588 10590 10588 10583 10585 10593 10602 10611 10618 10623 10625 10626 10628 10629 10630 10631 10631 10631
10485 10485 10486 10484 10481 10481 10481 10481 10481 10481 10479 10479 10481 10482 10484 10486 10486 10487 10489 10490 10488 10483 10486 10491 10491 10490 10494 10499 10501 10502 10504 10505 10508 10509 10507 10510 10516 10517 10517 10517 10518 10520 10522 10524 10523 10522 10527 10528 10528 10530 10531 10533 10533 10533 10535 10539 10542 10542 10541 10544 10547 10551 10554 10557 10562 10568 10573 10578 10581 10582 10582 10582 10580 10577 10583 10592 10599 10606 10613 10617 10618 10620 10621 10622 10624 10625 10625 10627
10477 10478 10479 10477 10474 10474 10475 10474 10474 10474 10473 10473 10474 10476 10479 10479 10478 10480 10482 10482 10480 10479 10479 10481 10484 10486 10489 10492 10493 10494 10497 10499 10501 10503 10502 10505 10510 10511 10511 10510 10512 10515 10518 10519 10517 10518 10522 10523 10522 10525 10526 10527 10527 10528 10531 10535 10536 10535 10537 10540 10543 10547 10551 10554 10559 10564 10569 10573 10577 10577 10576 10576 10574 10573 10580 10590 10596 10602 10607 10609 10611 10614 10616 10617 10618 10620 10621 10623
10470 10470 10472 10471 10468 10468 10469 10468 10467 10467 10467 10467 10468 10471 10473 10472 10471 10473 10475 10474 10474 10475 10474 10474 10477 10481 10483 10485 10484 10486 10490 10491 10495 10499 10498 10500 10503 10505 10505 10505 10508 10512 10514 10513 10511 10513 10517 10517 10518 10521 10521 10521 10522 10524 10528 10530 10529 10531 10535 10537 10539 10543 10547 10551 10555 10558 10564 10568 10571 10571 10570 10570 10570 10570 10578 10588 10595 10599 10602 10602 10604 10608 10610 10612 10614 10615 10616 10617
10462 10463 10464 10464 10462 10461 10462 10461 10461 10461 10461 10462 10463 10465 10466 10465 10466 10468 10467 10466 10467 10469 10468 10467 10470 10473 10476 10478 10478 10480 10484 10486 10490 10493 10492 10494 10497 10498 10499 10501 10504 10507 10509 10508 10506 10509 10512 10513 10514 10515 10515 10515 10518 10521 10524 10524 10524 10529 10532 10532 10534 10539 10543 10547 10550 10553 10559 10562 10564 10565 10564 10566 10568 10569 10577 10586 10591 10594 10595 10595 10596 10601 10604 10606 10608 10609 10611 10612
10455 10456 10456 10457 10456 10455 10455 10455 10455 10456 10455 10456 10458 10459 10459 10459 10461 10462 10459 10458 10459 10461 10461 10461 10464 10467 10470 10473 10473 10474 10478 10480 10484 10487 10486 10487 10491 10492 10494 10497 10499 10501 10503 10503 10502 10505 10508 10509 10509 10509 10510 10511 10514 10517 10518 10518 10521 10525 10526 10526 10530 10534 10538 10543 10545 10549 10554 10556 10557 10558 10560 10563 10565 10568 10575 10581 10585 10587 10588 10589 10592 10596 10598 10601 10603 10604 10606 10608
10448 10449 10449 10450 10450 10448 10448 10448 10449 10450 10449 10450 10452 10452 10453 10454 10455 10453 10450 10449 10451 10453 10454 10455 10459 10461 10464 10466 10467 10468 10472 10474 10478 10481 10480 10481 10485 10487 10489 10492 10494 10496 10498 10498 10499 10502 10504 10505 10504 10505 10506 10508 10511 10512 10512 10514 10517 10520 10522 10523 10526 10530 10535 10539 10542 10546 10549 10550 10551 10553 10556 10559 10562 10566 10572 10575 10579 10581 10582 10585 10589 10592 10594 10596 10598 10600 10602 10604
10441 10442 10442 10442 10443 10442 10441 10442 10443 10444 10444 10445 10446 10446 10448 10448 10447 10444 10442 10443 10444 10446 10448 10450 10453 10456 10458 10460 10462 10463 10467 10470 10473 10475 10475 10475 10479 10482 10484 10487 10489 10491 10492 10493 10496 10499 10500 10500 10500 10501 10502 10504 10506 10507 10507 10510 10513 10515 10518 10520 10522 10526 10531 10534 10538 10541 10543 10545 10547 10549 10553 10557 10560 10564 10568 10570 10573 10576 10578 10582 10585 10587 10589 10591 10593 10595 10597 10598
10434 10435 10435 10435 10435 10435 10435 10436 10437 10438 10439 10439 10440 10441 10442 10440 10438 10437 10437 10436 10436 10439 10443 10446 10449 10453 10454 10456 10457 10459 10462 10464 10467 10470 10470 10470 10473 10477 10479 10481 10484 10486 10487 10490 10493 10495 10496 10495 10496 10497 10498 10500 10501 10501 10502 10506 10509 10512 10514 10516 10519 10522 10526 10530 10532 10535 10538 10540 10542 10545 10550 10556 10558 10560 10563 10566 10568 10571 10575 10578 10580 10582 10583 10585 10588 10590 10592 10592
10428 10428 10427 10428 10428 10428 10429 10430 10431 10433 10434 10434 10435 10435 10434 10433 10432 10433 10432 10430 10430 10435 10440 10444 10446 10448 10450 10451 10452 10453 10455 10458 10461 10464 10466 10466 10467 10471 10473 10476 10480 10481 10484 10487 10489 10491 10492 10491 10492 10494 10495 10497 10497 10497 10499 10503 10506 10509 10511 10514 10516 10520 10523 10525 10528 10532 10534 10536 10538 10543 10549 10554 10555 10556 10559 10562 10564 10568 10571 10573 10576 10578 10578 10580 10584 10586 10587 10588
10421 10421 10420 10421 10422 10422 10423 10424 10425 10427 10428 10429 10429 10428 10427 10427 10428 10428 10426 10425 10427 10432 10437 10439 10439 10441 10442 10444 10445 10447 10448 10451 10453 10456 10461 10461 10461 10465 10469 10473 10475 10477 10480 10483 10485 10487 10488 10488 10489 10491 10493 10494 10494 10494 10497 10500 10503 10505 10507 10509 10512 10515 10518 10521 10524 10528 10531 10533 10536 10541 10546 10549 10550 10552 10555 10557 10560 10563 10566 10569 10572 10574 10576 10578 10580 10582 10584 10585
10414 10414 10414 10415 10415 10416 10417 10418 10420 10421 10422 10423 10423 10422 10422 10422 10422 10423 10421 10422 10424 10428 10431 10431 10432 10434 10435 10437 10439 10440 10442 10444 10446 10450 10455 10457 10457 10461 10465 10469 10471 10472 10476 10480 10482 10484 10485 10485 10487 10489 10489 10489 10490 10492 10494 10497 10499 10501 10503 10504 10507 10511 10514 10517 10521 10524 10527 10530 10533 10538 10542 10544 10547 10549 10551 10553 10556 10559 10562 10566 10568 10571 10573 10575 10577 10580 10582 10583
10408 10408 10408 10408 10408 10410 10411 10413 10414 10415 10416 10416 10416 10417 10416 10416 10417 10417 10416 10417 10419 10423 10425 10425 10425 10428 10431 10433 10434 10435 10438 10440 10440 10445 10451 10453 10455 10458 10461 10463 10466 10469 10473 10476 10478 10479 10480 10482 10483 10484 10484 10485 10487 10488 10490 10493 10495 10497 10498 10500 10504 10508 10511 10514 10517 10519 10522 10526 10529 10534 10538 10541 10545 10547 10549 10551 10553 10556 10559 10563 10565 10567 10570 10572 10575 10579 10582 10583
10402 10402 10402 10402 10403 10404 10405 10406 10408 10409 10409 10410 10410 10410 10410 10410 10411 10411 10410 10411 10413 10417 10419 10419 10420 10425 10427 10429 10429 10430 10434 10436 10436 10441 10446 10449 10452 10454 10456 10458 10461 10465 10469 10471 10473 10475 10477 10477 10478 10478 10479 10480 10483 10485 10487 10490 10492 10493 10495 10497 10501 10505 10508 10511 10513 10515 10518 10521 10525 10530 10535 10539 10542 10544 10545 10548 10552 10557 10560 10562 10564 10566 10569 10572 10575 10579 10581 10582
10396 10396 10395 10396 10397 10398 10400 10401 10402 10402 10403 10403 10403 10404 10404 10404 10404 10404 10404 10406 10408 10412 10413 10413 10416 10420 10423 10424 10424 10424 10427 10432 10434 10437 10440 10444 10448 10450 10451 10454 10458 10462 10465 10468 10470 10472 10473 10473 10473 10474 10475 10476 10478 10481 10484 10487 10489 10491 10493 10497 10500 10503 10506 10508 10510 10512 10515 10518 10523 10527 10532 10536 10538 10540 10542 10545 10552 10559 10562 10563 10564 10566 10568 10570 10574 10579 10581 10582
10390 10390 10390 10390 10391 10392 10394 10395 10396 10396 10396 10396 10397 10397 10397 10397 10396 10396 10398 10399 10401 10403 10405 10407 10411 10416 10418 10419 10418 10417 10421 10427 10430 10432 10434 10438 10443 10446 10448 10451 10454 10457 10461 10464 10466 10468 10469 10470 10469 10470 10471 10472 10474 10477 10481 10484 10485 10487 10491 10494 10497 10500 10503 10505 10507 10510 10513 10516 10520 10524 10528 10531 10533 10535 10538 10543 10550 10554 10557 10560 10563 10563 10564 10566 10571 10575 10577 10577
10384 10385 10385 10386 10387 10387 10387 10388 10388 10389 10389 10389 10390 10389 10390 10390 10389 10389 10390 10391 10392 10396 10400 10403 10407 10411 10412 10412 10412 10412 10417 10423 10426 10427 10430 10433 10437 10442 10445 10447 10450 10453 10456 10459 10462 10463 10465 10466 10465 10466 10467 10468 10470 10474 10477 10480 10482 10484 10487 10490 10491 10494 10497 10500 10503 10506 10509 10512 10516 10520 10523 10527 10529 10532 10535 10539 10544 10547 10549 10553 10556 10557 10558 10561 10565 10569 10569 10569
10379 10381 10381 10381 10381 10381 10381 10381 10381 10381 10381 10381 10382 10382 10383 10383 10381 10381 10383 10384 10387 10392 10396 10399 10402 10404 10406 10408 10408 10408 10412 10417 10420 10422 10425 10428 10432 10436 10440 10443 10446 10448 10450 10454 10458 10460 10461 10462 10461 10461 10463 10465 10467 10470 10473 10475 10478 10481 10483 10485 10487 10489 10492 10495 10498 10501 10504 10508 10512 10515 10518 10522 10525 10528 10531 10535 10539 10543 10545 10547 10548 10551 10553 10556 10560 10564 10566 10567
10374 10375 10376 10376 10376 10374 10374 10374 10375 10374 10373 10373 10373 10374 10375 10375 10373 10373 10376 10377 10380 10385 10389 10391 10394 10397 10401 10403 10403 10403 10406 10411 10415 10418 10421 10424 10428 10431 10435 10439 10441 10443 10446 10449 10453 10455 10457 10457 10457 10457 10460 10462 10464 10466 10469 10471 10474 10477 10479 10481 10483 10485 10487 10491 10494 10497 10501 10505 10508 10511 10514 10517 10520 10524 10528 10531 10535 10539 10541 10542 10544 10546 10548 10551 10555 10558 10560 10561
10370 10369 10370 10370 10370 10368 10367 10367 10367 10367 10366 10365 10365 10366 10366 10366 10365 10366 10368 10369 10374 10378 10381 10383 10386 10390 10394 10395 10395 10396 10399 10404 10411 10415 10417 10421 10424 10427 10431 10434 10436 10439 10442 10444 10448 10450 10453 10454 10453 10453 10456 10459 10461 10463 10465 10467 10470 10473 10475 10476 10478 10480 10483 10487 10490 10493 10497 10501 10504 10507 10511 10513 10516 10521 10525 10527 10530 10532 10534 10537 10540 10541 10543 10546 10550 10553 10554 10555
10366 10364 10363 10364 10364 10362 10361 10361 10360 10358 10358 10357 10357 10357 10357 10356 10357 10358 10359 10362 10367 10370 10372 10375 10379 10383 10385 10385 10387 10388 10391 10398 10405 10408 10411 10416 10419 10422 10427 10429 10431 10435 10438 10440 10443 10445 10448 10450 10450 10451 10452 10454 10457 10459 10461 10463 10465 10468 10470 10472 10474 10476 10479 10482 10485 10489 10493 10497 10499 10502 10506 10509 10513 10517 10521 10524 10524 10525 10528 10532 10534 10535 10538 10541 10544 10546 10548 10549
10361 10360 10359 10358 10357 10356 10355 10354 10353 10351 10350 10349 10349 10349 10349 10348 10349 10351 10350 10354 10360 10363 10364 10368 10372 10375 10376 10378 10380 10382 10385 10393 10399 10402 10405 10410 10412 10416 10421 10424 10427 10430 10432 10434 10437 10439 10441 10444 10447 10448 10449 10450 10452 10455 10457 10459 10461 10463 10465 10467 10469 10472 10475 10478 10481 10484 10488 10492 10494 10497 10500 10504 10508 10512 10515 10517 10519 10520 10522 10524 10525 10529 10533 10535 10536 10538 10541 10542
10356 10355 10355 10354 10352 10350 10349 10347 10346 10345 10343 10343 10342 10342 10342 10341 10342 10343 10344 10348 10354 10355 10355 10359 10362 10366 10369 10371 10374 10376 10380 10387 10392 10395 10399 10403 10406 10409 10413 10417 10421 10424 10426 10428 10431 10433 10435 10438 10441 10444 10445 10446 10448 10450 10452 10454 10456 10458 10460 10462 10465 10467 10470 10474 10476 10480 10483 10487 10490 10492 10495 10499 10502 10505 10508 10509 10511 10514 10515 10516 10518 10523 10526 10528 10529 10531 10534 10536
10351 10350 10349 10348 10347 10345 10344 10342 10340 10339 10338 10337 10335 10335 10335 10335 10335 10337 10338 10342 10346 10346 10347 10350 10353 10358 10362 10363 10365 10368 10372 10378 10384 10388 10392 10396 10399 10402 10406 10411 10414 10417 10420 10423 10425 10428 10430 10433 10436 10437 10439 10441 10442 10443 10445 10448 10451 10454 10456 10458 10461 10463 10466 10469 10472 10475 10479 10482 10485 10487 10490 10493 10497 10499 10502 10504 10505 10507 10509 10511 10514 10517 10520 10522 10524 10526 10528 10531
10346 10345 10344 10342 10341 10340 10339 10337 10335 10333 10332 10331 10330 10329 10329 10329 10329 10331 10333 10335 10337 10338 10339 10342 10346 10351 10354 10355 10357 10360 10364 10369 10375 10380 10384 10388 10391 10394 10398 10402 10406 10409 10413 10417 10420 10423 10425 10427 10429 10431 10433 10435 10436 10438 10440 10443 10446 10449 10451 10453 10456 10458 10461 10464 10467 10470 10473 10476 10479 10482 10484 10488 10491 10494 10497 10499 10501 10502 10505 10507 10510 10512 10514 10516 10518 10520 10522 10524
10342 10341 10339 10337 10336 10335 10334 10332 10330 10328 10326 10325 10325 10324 10324 10324 10325 10326 10327 10328 10330 10331 10333 10336 10341 10345 10346 10347 10349 10352 10356 10361 10366 10371 10376 10379 10383 10387 10390 10394 10398 10402 10405 10410 10415 10417 10418 10421 10423 10426 10428 10429 10431 10433 10436 10439 10442 10443 10445 10448 10451 10453 10456 10458 10461 10465 10468 10471 10474 10476 10479 10483 10485 10487 10490 10494 10497 10500 10502 10503 10505 10507 10508 10510 10512 10514 10515 10517
10339 10337 10336 10334 10332 10330 10329 10327 10326 10324 10322 10321 10320 10319 10319 10320 10320 10320 10321 10323 10325 10326 10328 10332 10336 10338 10339 10341 10343 10346 10350 10354 10358 10363 10369 10373 10377 10381 10384 10387 10392 10396 10399 10403 10408 10409 10411 10414 10418 10421 10421 10423 10426 10428 10430 10432 10435 10436 10437 10441 10445 10448 10451 10453 10456 10459 10462 10466 10469 10472 10474 10477 10479 10481 10485 10489 10492 10495 10499 10500 10501 10502 10503 10504 10505 10507 10508 10510